Regional Weather Roundup
Issued by NWS Upton, NY

Current Version | Previous Version | Text Only | Print | Product List | Glossary Off
Versions: 1 2 3 4 5 6 7 8 9 10 11 12 13 14 15 16 17 18 19 20 21 22 23 24 25 26 27 28 29 30 31 32 33 34 35 36 37 38 39 40 41 42 43 44 45 46 47 48 49 50
000 ASUS41 KOKX 111408 RWROKX REGIONAL WEATHER ROUNDUP NATIONAL WEATHER SERVICE NEW YORK NY 900 AM EST MON DEC 11 2017 NOTE: "FAIR" INDICATES FEW OR NO CLOUDS BELOW 12,000 FEET WITH NO SIGNIFICANT WEATHER AND/OR OBSTRUCTIONS TO VISIBILITY. NYZ071-072-176-178-NJZ106-104-111500- NEW YORK CITY METRO AREA CITY SKY/WX TMP DP RH WIND PRES REMARKS Central Park SUNNY 34 27 75 VRB3 30.05R Bronx Bot Gard N/A 34 25 69 W9 30.06R WCI 26 Bronx Lehman C N/A 34 27 75 SW3 N/A LaGuardia APRT MOSUNNY 36 26 67 SW13G20 30.03R WCI 27 Queens College N/A 34 28 80 W6 N/A WCI 29 Kennedy INTL MOSUNNY 34 30 85 W14 30.05R WCI 25 Breezy Point N/A 34 N/A N/A W12G17 N/A WCI 25 Brooklyn Coll N/A 34 30 86 SW8 N/A WCI 27 Staten Island N/A 32 30 93 SW6 N/A WCI 26 Newark/Liberty MOSUNNY 34 28 79 SW10 30.04S WCI 26 Teterboro SUNNY 34 26 72 SW9 30.03R WCI 27 $$ NYZ177-179-078>081-111500- LONG ISLAND NEW YORK CITY SKY/WX TMP DP RH WIND PRES REMARKS Jones Beach N/A 36 N/A N/A W13 N/A WCI 27 Wantagh N/A 36 28 75 W9 N/A WCI 29 Matinecock PT N/A 36 N/A N/A SW20 N/A WCI 25 Farmingdale MOSUNNY 34 28 79 W9 30.04R WCI 27 MacArthur/ISP PTSUNNY 36 28 73 W9 30.03R WCI 29 Shirley MOSUNNY 35 27 72 SW12 30.04R WCI 27 Mt Sinai Harb N/A N/A N/A N/A SW5 N/A Westhampton SUNNY 36 26 67 W13 30.04R WCI 27 East Hampton PTSUNNY 35 26 69 W9 30.02R WCI 27 Southold N/A 34 28 80 SW7 N/A WCI 28 Montauk N/A 38 26 62 W9G18 30.02R WCI 31 $$ NYZ052-065-067-111500- HUDSON VALLEY CITY SKY/WX TMP DP RH WIND PRES REMARKS White Plains SUNNY 32 22 66 VRB3 30.00R Larchmont Harb N/A 34 N/A N/A SW14 N/A WCI 24 Croton On Huds N/A 36 N/A N/A W10 N/A WCI 28 Somers N/A 32 21 64 W3 N/A Brewster N/A 32 21 64 W2 N/A Newburgh SUNNY 30 25 80 W9 30.00R WCI 22 Montgomery SUNNY 30 23 75 S7 29.99R WCI 23 Otisville N/A 30 23 74 W5 N/A WCI 25 Warwick N/A 32 23 69 W6 N/A WCI 26 Suffern N/A 32 23 69 W2 N/A Poughkeepsie SUNNY 32 21 64 SW6 30.00S WCI 26 Albany PTSUNNY 30 22 72 S3 29.98R $$ NJZ001-105-106-008-010-013-015-019>022-104-111500- NEW JERSEY CITY SKY/WX TMP DP RH WIND PRES REMARKS Newark/Liberty MOSUNNY 34 28 79 SW10 30.04S WCI 26 Teterboro SUNNY 34 26 72 SW9 30.03R WCI 27 Caldwell SUNNY 32 25 75 W5 30.04R WCI 27 Somerville SUNNY 32 28 85 CALM 30.03R Linden FAIR 33 28 83 CALM 30.04F Perth Amboy N/A 32 N/A N/A W6 N/A WCI 26 Sussex SUNNY 30 24 78 S6 30.00S WCI 24 Andover NOT AVBL Trenton SUNNY 33 30 88 S3 30.04R Millville CLOUDY 36 32 85 W3 30.08R Atlantic City CLOUDY 38 30 73 W6 30.07R WCI 33 Wrightstown CLOUDY 32 30 92 SW6 30.03R WCI 27 Toms River MOSUNNY 34 32 92 SW7 30.07R WCI 28 Belmar MOSUNNY 34 32 92 SW5 N/A WCI 30 $$ PAZ047>061-062-071-111500- EASTERN PENNSYLVANIA CITY SKY/WX TMP DP RH WIND PRES REMARKS Philadelphia PTSUNNY 37 25 61 W12 30.07R WCI 29 Allentown MOSUNNY 32 21 64 W8 30.03R WCI 25 Scranton SUNNY 30 21 69 SW6 29.99R WCI 24 $$ CTZ002-004>006-009-010-012-RIZ004-006-007-MAZ004-011-015-111500- SOUTHERN NEW ENGLAND IN CT CITY SKY/WX TMP DP RH WIND PRES REMARKS Bradley INTL PTSUNNY 31 22 69 S7 29.98R WCI 24 Hartford MOSUNNY 34 23 64 SW6 30.00R WCI 29 Danbury SUNNY 32 21 64 SW6 30.00R WCI 26 Wtrbury/Oxford MOSUNNY 30 22 72 SW5 29.98R WCI 25 Norwalk Harbor N/A 32 N/A N/A SW13 N/A WCI 22 Bridgeport MOSUNNY 36 24 62 W9 30.02R WCI 29 Meriden MOSUNNY 32 22 66 S6 30.00R WCI 26 New Haven PTSUNNY 36 24 62 W7G17 30.01R WCI 30 Chester PTSUNNY 34 23 64 SW7G15 29.98S WCI 28 Groton CLOUDY 35 23 61 W7 30.00S WCI 29 Wilimantic MOSUNNY 33 24 69 CALM 29.99S IN RI CITY SKY/WX TMP DP RH WIND PRES REMARKS Providence PTSUNNY 34 27 75 SW6 30.00S WCI 29 Block Island N/A N/A N/A N/A MISG N/A Westerly PTSUNNY 35 26 69 VRB5 30.01R WCI 31 IN MA CITY SKY/WX TMP DP RH WIND PRES REMARKS Boston CLOUDY 33 24 69 SW13 29.98R WCI 24 Worcester CLOUDY 27 20 75 W9 29.92R WCI 18 Westfield MOSUNNY 30 21 69 SW5 29.97R WCI 25 Provincetown SUNNY 36 26 67 SW14G23 29.99 WCI 27 Nantucket CLOUDY 39 30 70 NW12 30.00R WCI 32 $$ ANZ330-335-338-340-345-350-353-355-111500- COASTAL MARINE OBSERVATIONS STATION/POSITION TIME SKY/WX TEMP WIND PRES VSBY WAVE AIR SEA DIR/SP/G HT/PER (UTC) (F) (DEG/KT/KT) (MB) (MI) (FT/S) NY HARB ENTRANCE 1250 38 51 260/ 16/ 19 1016.6 3/ 9 20 S FIRE ISLAND 1250 38 53 280/ 14/ 17 1017.2 5/ 5 GREAT SOUTH BAY 1330 36 45 280/ 14/ 17 N/A HUDSON CANYON 1250 42 56 300/ 19/ 23 1017.0 5/ 6 KINGS POINT 1330 35 45 270/ 8/ 10 1017.8 EXECUTION ROCKS 1330 37 230/ 12/ 17 N/A WESTERN LI SOUND 1249 37 260/ 16/ 21 N/A 1/ 3 CENTRAL LI SOUND 1300 38 260/ 16/ 19 N/A 4 ROBBINS REEF 1330 33 240/ 9/ 12 1017.8 $$ >>>>>>>>>>>>>>>>>>>>>>>>>>>> KEY <<<<<<<<<<<<<<<<<<<<<<<<<<< > < > SKY/WX - Sky Condition/Present Weather < > TMP - Temperature in Fahrenheit < > DP - Dew Point in Fahrenheit < > RH - Relative Humidity in Percent < > WIND - Direction (from) and Speed in MPH < > PRES - Mean Sea Level Pressure (inches of Hg) < > WCI - Wind Chill Index < > VSB - VISIBILITY IN MILES < > HX - HEAT INDEX < > TC - TEMPERATURE IN CELSIUS < > VRB - VARIABLE WIND DIRECTION < > < >>>>>>>>>>>>>>>>>>>>>>>>>>>> KEY <<<<<<<<<<<<<<<<<<<<<<<<<<<

USA.gov is the U.S. government's official web portal to all federal, state and local government web resources and services.